Location: Santa Giusta
(39.8800°N, 8.6069°E)
Time: 16:45:02
(UTC+00:00)

CSL-04 Debris - Pass Details

Date: 02 February 2023
Orbit: 826 x 845 km, 98.8° (Epoch: 31 March)

Event Time Altitude Azimuth Distance (km) Brightness Sun altitude
Exits shadow 18:56:15 49° 27° (NNE) 1,061 4.5 -25.3°
Drops below altitude 10° 19:00:28 10° 354° (N) 2,442 6.6 -26.1°
Sets 19:02:51 0° 351° (N) 3,378 7.4 -26.5°
